Weather History for Pratt, KS

Change the Weather History Date:

Tuesday, February 25, 2014

  Actual Average (KP28) Record (KP28)
Temperature  
Mean Temperature 22 °F 41 °F  
Max Temperature 28 °F 53 °F 86 °F (1904)
Min Temperature 15 °F 29 °F -2 °F (1960)
Degree Days  
Heating Degree Days 44 24  
Month to date heating degree days 682  
Since 1 July heating degree days 3459  
Cooling Degree Days 0 0  
Month to date cooling degree days 0  
Year to date cooling degree days 0  
Moisture  
Dew Point 14 °F    
Average Humidity 70    
Maximum Humidity 86    
Minimum Humidity 54    
Precipitation  
Precipitation 0.00 in 0.05 in 1.25 in (1951)
Month to date precipitation 0.90  
Year to date precipitation 1.61  
Snow  
Snow 0.00 in 0.10 in - ()
Month to date snowfall 2.1  
Since 1 July snowfall 8.3  
Snow Depth -    
Sea Level Pressure  
Sea Level Pressure 30.31 in    
Wind  
Wind Speed 15 mph (NNE)    
Max Wind Speed 23 mph    
Max Gust Speed 29 mph    
Visibility 10 miles    
Events Snow    
T = Trace of Precipitation, MM = Missing Value Source: NWS Daily Summary

Daily Weather History Graph

Daily Weather History Graph

Search for Another Location

Airport:

Trip Planner

Search our weather history database for the weather conditions in past years. The results will help you decide how hot, cold, wet, or windy it might be!

Date:

Astronomy

Feb. 25, 2014 Rise Set
Actual Time 7:11 AM CST 6:24 PM CST
Civil Twilight 6:45 AM CST 6:51 PM CST
Nautical Twilight 6:15 AM CST 7:21 PM CST
Astronomical Twilight 5:44 AM CST 7:51 PM CST
Moon 4:05 AM CST (2/25) 2:35 PM CST (2/25)
Length of Visible Light 12h 05m
Length of Day
11h 12m
Waning Crescent, 18% of the Moon is Illuminated
Feb 25
Waning Crescent
Mar 1
New
Mar 8
First Quarter
Mar 16
Full
Mar 23
Last Quarter

Hourly Weather History & Observations

Time (CST) Temp. Windchill Dew Point Humidity Pressure Visibility Wind Dir Wind Speed Gust Speed Precip Events Conditions
12:15 AM 28.4 °F 18.5 °F 23.0 °F 80% 30.23 in 10.0 mi North 11.5 mph - N/A   Clear
12:35 AM 28.4 °F 18.5 °F 23.0 °F 80% 30.25 in 10.0 mi North 11.5 mph - N/A   Clear
12:55 AM 28.4 °F 18.0 °F 23.0 °F 80% 30.26 in 10.0 mi North 12.7 mph - N/A   Clear
1:15 AM 28.4 °F 17.0 °F 21.2 °F 74% 30.27 in 10.0 mi North 15.0 mph - N/A   Clear
1:35 AM 28.4 °F 16.6 °F 21.2 °F 74% 30.26 in 10.0 mi North 16.1 mph - N/A   Clear
1:55 AM 26.6 °F 15.2 °F 19.4 °F 74% 30.27 in 10.0 mi North 13.8 mph - N/A   Clear
2:15 AM 26.6 °F 14.7 °F 19.4 °F 74% 30.26 in 10.0 mi North 15.0 mph - N/A   Clear
3:55 AM 24.8 °F 10.7 °F 19.4 °F 80% 30.28 in 10.0 mi North 19.6 mph - N/A   Clear
4:15 AM 23.0 °F 9.2 °F 19.4 °F 86% - 10.0 mi North 17.3 mph - N/A   Clear
4:35 AM 23.0 °F 8.0 °F 17.6 °F 80% 30.28 in 10.0 mi North 20.7 mph 27.6 mph N/A   Clear
4:55 AM 21.2 °F 6.0 °F 14.0 °F 74% 30.28 in 10.0 mi North 19.6 mph - N/A   Clear
5:15 AM 19.4 °F 6.6 °F 14.0 °F 80% 30.28 in 10.0 mi North 12.7 mph - N/A   Clear
5:35 AM 19.4 °F 6.0 °F 14.0 °F 80% 30.28 in 10.0 mi North 13.8 mph - N/A   Clear
5:55 AM 19.4 °F 3.6 °F 12.2 °F 74% 30.27 in 10.0 mi North 19.6 mph - N/A   Clear
6:35 AM 17.6 °F 1.3 °F 12.2 °F 79% 30.28 in 10.0 mi North 19.6 mph 23.0 mph N/A   Clear
6:55 AM 17.6 °F 2.7 °F 10.4 °F 73% 30.28 in 10.0 mi North 16.1 mph - N/A   Clear
7:15 AM 15.8 °F 3.4 °F 10.4 °F 79% 30.28 in 10.0 mi North 10.4 mph - N/A   Clear
7:35 AM 15.8 °F 2.7 °F 10.4 °F 79% 30.29 in 10.0 mi North 11.5 mph - N/A   Clear
7:55 AM 17.6 °F 3.7 °F 10.4 °F 73% 30.30 in 10.0 mi North 13.8 mph - N/A   Clear
8:15 AM 17.6 °F 4.3 °F 10.4 °F 73% 30.31 in 10.0 mi North 12.7 mph 17.3 mph N/A   Clear
8:35 AM 17.6 °F 5.0 °F 10.4 °F 73% 30.31 in 10.0 mi North 11.5 mph - N/A   Clear
8:55 AM 19.4 °F 6.0 °F 10.4 °F 68% 30.31 in 10.0 mi North 13.8 mph - N/A   Clear
9:15 AM 19.4 °F 6.0 °F 10.4 °F 68% 30.31 in 10.0 mi North 13.8 mph 18.4 mph N/A   Clear
9:35 AM 21.2 °F 8.3 °F 10.4 °F 63% 30.31 in 10.0 mi North 13.8 mph - N/A   Clear
9:55 AM 21.2 °F 7.8 °F 12.2 °F 68% 30.30 in 10.0 mi North 15.0 mph - N/A   Clear
10:15 AM 21.2 °F 7.8 °F 12.2 °F 68% 30.30 in 10.0 mi North 15.0 mph - N/A   Clear
10:35 AM 23.0 °F 11.1 °F 12.2 °F 63% 30.31 in 10.0 mi North 12.7 mph - N/A   Clear
10:50 AM 23.0 °F 10.6 °F 12.2 °F 63% 30.30 in 10.0 mi North 13.8 mph - N/A   Clear
11:20 AM 24.8 °F 13.4 °F 12.2 °F 59% 30.30 in 10.0 mi NNE 12.7 mph - N/A   Clear
11:35 AM 26.6 °F 15.2 °F 14.0 °F 59% 30.30 in 10.0 mi North 13.8 mph - N/A   Clear
11:55 AM 26.6 °F 14.3 °F 14.0 °F 59% 30.30 in 10.0 mi NNE 16.1 mph - N/A   Clear
12:15 PM 26.6 °F 14.7 °F 14.0 °F 59% 30.30 in 10.0 mi NNE 15.0 mph 19.6 mph N/A   Scattered Clouds
12:35 PM 28.4 °F 17.5 °F 14.0 °F 55% 30.29 in 10.0 mi NNE 13.8 mph 21.9 mph N/A   Clear
12:55 PM 28.4 °F 17.0 °F 14.0 °F 55% 30.28 in 10.0 mi NNE 15.0 mph - N/A   Scattered Clouds
1:15 PM 28.4 °F 17.5 °F 14.0 °F 55% 30.28 in 10.0 mi NE 13.8 mph - N/A   Scattered Clouds
1:35 PM 28.4 °F 17.5 °F 14.0 °F 55% 30.27 in 10.0 mi NE 13.8 mph 19.6 mph N/A   Scattered Clouds
1:55 PM 28.4 °F 17.5 °F 14.0 °F 55% 30.26 in 10.0 mi NE 13.8 mph 20.7 mph N/A   Mostly Cloudy
2:15 PM 26.6 °F 14.7 °F 14.0 °F 59% 30.26 in 10.0 mi NE 15.0 mph 20.7 mph N/A   Overcast
2:35 PM 26.6 °F 15.2 °F 14.0 °F 59% 30.26 in 10.0 mi NE 13.8 mph 21.9 mph N/A   Overcast
2:55 PM 24.8 °F 12.4 °F 15.8 °F 69% 30.25 in 10.0 mi NE 15.0 mph - N/A   Overcast
3:15 PM 24.8 °F 11.9 °F 15.8 °F 69% 30.25 in 10.0 mi NE 16.1 mph - N/A   Overcast
3:35 PM 23.0 °F 9.6 °F 15.8 °F 74% 30.25 in 10.0 mi NE 16.1 mph 19.6 mph N/A   Overcast
3:55 PM 23.0 °F 9.6 °F 15.8 °F 74% 30.26 in 10.0 mi ENE 16.1 mph 20.7 mph N/A   Overcast
4:15 PM 23.0 °F 9.6 °F 15.8 °F 74% 30.26 in 10.0 mi NE 16.1 mph - N/A   Overcast
4:35 PM 23.0 °F 10.6 °F 15.8 °F 74% 30.26 in 10.0 mi NE 13.8 mph - N/A   Overcast
4:55 PM 21.2 °F 7.8 °F 15.8 °F 80% 30.26 in 10.0 mi NE 15.0 mph - N/A   Overcast
5:15 PM 21.2 °F 8.3 °F 15.8 °F 80% 30.27 in 10.0 mi NE 13.8 mph - N/A   Overcast
5:35 PM 21.2 °F 7.8 °F 15.8 °F 80% 30.28 in 10.0 mi NE 15.0 mph - N/A   Overcast
5:55 PM 21.2 °F 7.3 °F 15.8 °F 80% 30.28 in 10.0 mi NE 16.1 mph - N/A   Overcast
6:15 PM 21.2 °F 7.8 °F 15.8 °F 80% 30.29 in 10.0 mi NE 15.0 mph - N/A   Overcast
6:35 PM 21.2 °F 6.4 °F 15.8 °F 80% 30.31 in 10.0 mi NNE 18.4 mph - N/A   Overcast
6:55 PM 21.2 °F 7.8 °F 14.0 °F 74% 30.32 in 10.0 mi NNE 15.0 mph - N/A   Overcast
7:15 PM 21.2 °F 6.4 °F 14.0 °F 74% 30.34 in 10.0 mi NNE 18.4 mph 21.9 mph N/A   Overcast
7:35 PM 21.2 °F 7.3 °F 14.0 °F 74% 30.35 in 10.0 mi NNE 16.1 mph - N/A   Overcast
7:55 PM 21.2 °F 6.8 °F 14.0 °F 74% 30.35 in 10.0 mi NNE 17.3 mph - N/A   Overcast
8:15 PM 21.2 °F 5.2 °F 12.2 °F 68% 30.37 in 10.0 mi NNE 21.9 mph 27.6 mph N/A   Overcast
8:35 PM 21.2 °F 5.2 °F 8.6 °F 58% 30.38 in 10.0 mi North 21.9 mph 27.6 mph N/A   Overcast
8:55 PM 19.4 °F 2.5 °F 8.6 °F 63% 30.40 in 10.0 mi NNE 23.0 mph 28.8 mph N/A   Overcast
9:15 PM 19.4 °F 3.6 °F 6.8 °F 58% 30.41 in 10.0 mi NNE 19.6 mph 25.3 mph N/A   Overcast
9:35 PM 19.4 °F 2.8 °F 6.8 °F 58% 30.43 in 10.0 mi North 21.9 mph 25.3 mph N/A   Overcast
9:55 PM 19.4 °F 3.2 °F 5.0 °F 54% 30.45 in 10.0 mi North 20.7 mph 27.6 mph N/A   Overcast
10:15 PM 19.4 °F 2.8 °F 5.0 °F 54% 30.46 in 10.0 mi North 21.9 mph 26.5 mph N/A   Mostly Cloudy
10:35 PM 19.4 °F 4.1 °F 6.8 °F 58% 30.47 in 10.0 mi North 18.4 mph 24.2 mph N/A   Mostly Cloudy
10:55 PM 19.4 °F 4.5 °F 8.6 °F 63% 30.46 in 10.0 mi North 17.3 mph - N/A   Overcast
11:15 PM 19.4 °F 3.2 °F 8.6 °F 63% 30.46 in 10.0 mi North 20.7 mph 26.5 mph N/A   Scattered Clouds
11:35 PM 17.6 °F 0.9 °F 10.4 °F 73% 30.45 in 10.0 mi North 20.7 mph 26.5 mph N/A Snow Light Snow
11:55 PM 17.6 °F 0.9 °F 10.4 °F 73% 30.45 in 10.0 mi North 20.7 mph - N/A   Mostly Cloudy